Weather in Zolnoe

Russia / Samara Oblast     53°26′39″N   49°47′25″E
temp.,
°C
wind,
m/s
gust,
m/s
humid.,
%
clouds,
%
prec.,
mm/h
press.,
hPa
HPBL,
m
3 march, wed
wed301:00−3w2499100 0.4 1002106
04:00−5w239799 0.4 100388
07:00−6w2399100 0.1 100280
10:00−4wnw499693 0.3 1003471
13:00−2wnw699099 0.1 1004848
16:00−4nw6990100 0.4 1005890
19:00−6wnw51293100 0.2 1006564
22:00−7wnw51194100 0.4 1008597
4 march, thu
thu401:00−11w379695 0.1 1008160
04:00−11wsw379693 0.1 1008164
07:00−11sw479668 0.0 1006151
10:00−7sw6129481 0.2 1005512
13:00−3sw81391100 0.4 1002828
16:00−1wsw91595100 2.2 10001081
19:000wsw81694100 0.6 10001189
22:00−1wsw61489100 0.6 1002751
5 march, fri
fri501:00−1wsw51195100 0.4 1002587
04:00−1sw41097100 1.9 1002562
07:00−2sw51196100 1.3 1001536
10:000sw61198100 3.2 1000666
13:000sw38100100 2.4 1000440
16:00−2nnw5895100 3.3 1002581
19:00−7nnw499597 0.1 1007288
22:00−13nnw229164 0.1 101120
6 march, sat
sat601:00−15nnw00830 0.0 101320
04:00−14ssw117619 0.0 101420
07:00−13s1280100 0.0 101420
10:00−9s2487100 0.0 1013195
13:00−5sw2489100 0.0 1011392
16:00−5w3593100 0.1 1010491
19:00−8nw3895100 0.1 1010269
22:00−11wnw4109593 0.2 1011335
7 march, sun
sun701:00−15wnw399681 0.1 1011174
04:00−19wnw359861 0.1 1013104
07:00−20w239984 0.0 101445
10:00−15w369342 0.0 1015263
13:00−11sw468811 0.0 1014515
16:00−10ssw598715 0.0 1011505
19:00−11ssw61491100 0.0 1009594
22:00−8ssw81591100 0.3 1006799